TimeCDT,TemperatureF,Dew PointF,Humidity,Sea Level PressureIn,VisibilityMPH,Wind Direction,Wind SpeedMPH,Gust SpeedMPH,PrecipitationIn,Events,Conditions,WindDirDegrees,DateUTC
12:01 AM,64.4,37.4,37,30.21,10.0,SE,15.0,-,N/A,,Overcast,130,2013-10-14 05:01:00
12:21 AM,64.4,37.4,37,30.20,10.0,SE,16.1,24.2,N/A,,Overcast,130,2013-10-14 05:21:00
12:53 AM,64.0,37.9,38,30.17,10.0,SE,13.8,20.7,N/A,,Overcast,140,2013-10-14 05:53:00
1:53 AM,64.0,39.9,41,30.16,10.0,SE,16.1,-,N/A,,Overcast,130,2013-10-14 06:53:00
2:15 AM,62.6,39.2,42,30.18,10.0,SE,15.0,-,N/A,,Overcast,140,2013-10-14 07:15:00
2:53 AM,63.0,41.0,45,30.14,10.0,SE,16.1,-,N/A,,Overcast,140,2013-10-14 07:53:00
3:53 AM,63.0,42.1,46,30.11,10.0,SE,17.3,-,N/A,,Overcast,140,2013-10-14 08:53:00
4:53 AM,62.1,43.0,50,30.09,10.0,SE,13.8,-,N/A,,Overcast,140,2013-10-14 09:53:00
5:53 AM,62.1,45.0,53,30.07,10.0,SSE,18.4,23.0,N/A,,Overcast,150,2013-10-14 10:53:00
6:10 AM,60.8,44.6,55,30.08,10.0,SE,18.4,24.2,N/A,,Mostly Cloudy,140,2013-10-14 11:10:00
6:53 AM,62.1,46.9,58,30.06,10.0,SSE,13.8,-,N/A,,Overcast,150,2013-10-14 11:53:00
7:02 AM,62.6,46.4,55,30.08,10.0,SSE,13.8,-,N/A,,Overcast,150,2013-10-14 12:02:00
7:53 AM,60.1,53.1,78,30.06,10.0,SSE,11.5,-,0.00,,Overcast,160,2013-10-14 12:53:00
8:53 AM,62.1,53.1,72,30.04,10.0,SSE,16.1,-,0.00,Rain,Light Rain,150,2013-10-14 13:53:00
9:53 AM,63.0,55.0,75,29.99,10.0,SE,15.0,-,0.00,,Overcast,130,2013-10-14 14:53:00
10:21 AM,64.4,55.4,73,30.01,10.0,SSE,17.3,23.0,N/A,,Mostly Cloudy,150,2013-10-14 15:21:00
10:53 AM,64.0,57.0,78,29.98,7.0,SSE,18.4,27.6,0.00,Rain,Light Rain,160,2013-10-14 15:53:00
11:53 AM,63.0,57.9,84,29.95,5.0,SSE,21.9,28.8,0.02,Rain,Light Rain,160,2013-10-14 16:53:00
12:53 PM,64.9,57.9,78,29.92,10.0,SSE,23.0,31.1,0.01,,Overcast,160,2013-10-14 17:53:00
1:53 PM,64.9,57.9,78,29.87,-9999.0,SSE,25.3,32.2,0.00,,Overcast,150,2013-10-14 18:53:00
2:07 PM,64.4,59.0,83,29.88,10.0,SSE,18.4,28.8,N/A,,Overcast,160,2013-10-14 19:07:00
2:53 PM,64.9,57.9,78,29.84,10.0,SSE,23.0,35.7,N/A,,Overcast,160,2013-10-14 19:53:00
3:53 PM,64.9,57.9,78,29.80,10.0,SSE,24.2,34.5,N/A,,Overcast,160,2013-10-14 20:53:00
4:53 PM,64.9,59.0,81,29.78,10.0,South,21.9,34.5,N/A,,Overcast,170,2013-10-14 21:53:00
5:53 PM,64.9,60.1,84,29.75,10.0,South,28.8,38.0,N/A,,Overcast,170,2013-10-14 22:53:00
6:43 PM,64.4,60.8,88,29.76,6.0,SSE,25.3,36.8,N/A,,Overcast,160,2013-10-14 23:43:00
6:53 PM,64.9,60.1,84,29.74,6.0,SSE,23.0,34.5,N/A,,Overcast,160,2013-10-14 23:53:00
7:11 PM,64.4,60.8,88,29.76,7.0,SSE,21.9,33.4,N/A,Thunderstorm,Overcast,160,2013-10-15 00:11:00
7:31 PM,60.8,57.2,88,29.84,3.0,WSW,17.3,41.4,N/A,Rain-Thunderstorm,Rain,240,2013-10-15 00:31:00
7:40 PM,60.8,57.2,88,29.83,5.0,SW,12.7,24.2,N/A,Rain-Thunderstorm,Light Rain,230,2013-10-15 00:40:00
7:53 PM,61.0,57.9,90,29.82,5.0,SW,9.2,-,0.28,Rain,Light Rain,220,2013-10-15 00:53:00
8:53 PM,61.0,57.9,90,29.83,10.0,SSW,8.1,-,0.01,,Overcast,210,2013-10-15 01:53:00
9:53 PM,60.1,57.0,90,29.87,10.0,SW,13.8,-,0.01,Rain,Light Rain,230,2013-10-15 02:53:00
10:53 PM,60.1,54.0,80,29.88,10.0,WNW,15.0,-,0.00,,Overcast,290,2013-10-15 03:53:00
11:53 PM,55.0,48.0,77,29.91,-9999.0,WNW,13.8,-,N/A,,Partly Cloudy,300,2013-10-15 04:53:00